This is the latest recevied weather packets stored in our database for station/object KB0RPJ. If no packets are shown the sender has not sent any weather packets the latest 10 day(s).
| Time | Temp. | Humidity | Pressure | Rain* | Wind** | Luminosity | Snow |
|---|---|---|---|---|---|---|---|
| 1778025904 | 13.33° C | 57% | 1010.6 hPa | 0 mm | - | 34 W/m² | - |
| 1778025606 | 13.33° C | 55% | 1010.8 hPa | 0 mm | - | 24 W/m² | - |
| 1778025319 | 13.33° C | 54% | 1010.8 hPa | 0 mm | - | 25 W/m² | - |
| 1778025005 | 13.33° C | 52% | 1010.9 hPa | 0 mm | - | 24 W/m² | - |
| 1778024709 | 13.89° C | 52% | 1010.7 hPa | 0 mm | - | 26 W/m² | - |
| 1778024405 | 13.89° C | 51% | 1010.5 hPa | 0 mm | - | 35 W/m² | - |
| 1778024105 | 13.89° C | 52% | 1010.4 hPa | 0 mm | - | 50 W/m² | - |
| 1778023805 | 13.33° C | 51% | 1010.4 hPa | 0 mm | - | 73 W/m² | - |
| 1778023505 | 13.33° C | 52% | 1010.4 hPa | 0 mm | - | 44 W/m² | - |
| 1778023206 | 13.33° C | 53% | 1010.6 hPa | 0 mm | - | 34 W/m² | - |
| 1778022907 | 13.33° C | 52% | 1010.5 hPa | 0 mm | - | 52 W/m² | - |
| 1778022605 | 13.33° C | 52% | 1010.5 hPa | 0 mm | - | 66 W/m² | - |
| 1778022305 | 13.33° C | 51% | 1010.4 hPa | 0 mm | - | 44 W/m² | - |
| 1778022004 | 13.33° C | 51% | 1010.4 hPa | 0 mm | - | 65 W/m² | - |
| 1778021705 | 13.33° C | 52% | 1010.4 hPa | 0 mm | - | 53 W/m² | - |
| 1778021407 | 13.33° C | 52% | 1010.4 hPa | 0 mm | - | 54 W/m² | - |
| 1778021104 | 13.33° C | 52% | 1010.4 hPa | 0 mm | - | 75 W/m² | - |
| 1778020805 | 13.33° C | 52% | 1010.3 hPa | 0 mm | - | 112 W/m² | - |
| 1778020505 | 13.33° C | 53% | 1010.4 hPa | 0 mm | - | 110 W/m² | - |
| 1778020205 | 13.33° C | 52% | 1010.5 hPa | 0 mm | - | 113 W/m² | - |
| 1778019904 | 13.33° C | 51% | 1010.4 hPa | 0 mm | - | 157 W/m² | - |
| 1778019605 | 13.33° C | 50% | 1010.4 hPa | 0 mm | - | 115 W/m² | - |
| 1778019304 | 13.33° C | 51% | 1010.4 hPa | 0 mm | - | 82 W/m² | - |
| 1778019005 | 13.33° C | 51% | 1010.4 hPa | 0 mm | - | 161 W/m² | - |
| 1778018705 | 13.33° C | 50% | 1010.4 hPa | 0 mm | - | 150 W/m² | - |
* Rain latest hour (hover to see other rain measurements)
** Current wind speed in m/s (hover to see current wind gust speed)